sat.trackr.live / text

‹ back to catalog

STARLINK-30441

NORAD 57869 · 2023-144F

PAYLOAD ACTIVE UNKNOWN

§ Identity

Operator
Country
US
Launch date
2023-09-16
Launch site
AFETR
Launch vehicle
Mass (kg)
RCS (m²)

Purposes: comms

External: N2YO · Heavens-Above · Gunter

§ Orbital elements

Epoch: 2026-09-20T16:44:13.484256Z

Period
94.27 min
Inclination
42.9998°
Eccentricity
0.0000798
Mean motion
15.27577596 rev/d
Perigee alt
482.5 km
Apogee alt
483.6 km
Semi-major
6,861.2 km
B*
1.4167e-5
RAAN
263.6624°
Arg perigee
270.3095°
Mean anomaly
89.7666°
Rev number
16,742

§ Raw data

STARLINK-304411 57869U 23144F   26263.69737829  .00000128  00000+0  14167-4 0  99922 57869  42.9998 263.6624 0000798 270.3095  89.7666 15.27577596167423

JSON: /api/v1/satellites/57869 · /tle

For live sub-satellite position, see the globe view (requires WebGL).

§ Visibility from observer

Set your observer location to see the next 7 days of passes ≥ 10°. The values pass through the URL so the page stays shareable.

No JS? Fill the form by hand. The geolocation button needs JavaScript.